Regional Weather Roundup
Issued by NWS Northern Indiana

Home | Current Version | Previous Version | Graphics & Text | Print | Product List | Glossary On
Versions: 1 2 3 4 5 6 7 8 9 10 11 12 13 14 15 16 17 18 19 20 21 22 23 24 25 26 27 28 29 30 31 32 33 34 35 36 37 38 39 40 41 42 43 44 45 46 47 48 49 50
000
ASUS43 KIWX 261101
RWRIWX

KIWX WEATHER ROUNDUP
NATIONAL WEATHER SERVICE NORTHERN INDIANA
700 AM EDT TUE SEP 26 2017

NOTE: "FAIR" INDICATES FEW OR NO CLOUDS BELOW 12,000 FEET WITH NO
SIGNIFICANT WEATHER AND/OR OBSTRUCTIONS TO VISIBILITY.

* THESE STATIONS ARE NOT UNDER NWS QUALITY CONTROL. THEY ALSO MAY NOT
  REPORT WEATHER SUCH AS PRECIPITATION OR FOG.

INZ001>027-261200-
NORTHERN INDIANA

CITY           SKY/WX    TMP DP  RH WIND       PRES   REMARKS
GARY*          CLEAR     68  61  77 VRB5      29.95S
MICHIGAN CITY* CLEAR     64  61  88 S3        29.96S
LAPORTE*       CLEAR     60  58  94 CALM      29.98R
KNOX*          CLEAR     61  59  94 CALM      29.97S
SOUTH BEND     CLEAR     64  61  90 SE5       29.98R
ELKHART*       CLEAR     63  59  88 CALM      29.98
GOSHEN         CLEAR     64  59  83 SE3       29.98S
MONTICELLO*    CLEAR     69  64  86 S3        29.97S
WARSAW*        CLEAR     61  61 100 CALM      29.99S
AUBURN*        CLEAR     61  59  94 CALM      30.01R FOG
FORT WAYNE     CLEAR     63  59  87 CALM      30.01R

$$
INZ028>050-261200-
CENTRAL INDIANA

CITY           SKY/WX    TMP DP  RH WIND       PRES   REMARKS
LAFAYETTE      CLEAR     65  64  97 CALM      29.98R
KOKOMO*        CLEAR     64  61  90 S5        30.01R
MUNCIE*        CLEAR     70  62  76 S3        30.02R
INDIANAPOLIS   CLEAR     68  63  84 SE5       30.01R

$$
MIZ043>046-050>051-056>058-064>065-071>073-077>080-261200-
SOUTHWEST LOWER MICHIGAN

CITY           SKY/WX    TMP DP  RH WIND       PRES   REMARKS
BATTLE CREEK   CLEAR     62  60  93 CALM      29.99S
BENTON HARBOR  CLEAR     62  57  83 CALM      29.95S
COLDWATER*     CLEAR     61  61 100 CALM      29.99S FOG
HILLSDALE*     MOCLDY    61  59  94 CALM      30.00S FOG
HOLLAND        CLEAR     63  57  81 SE3       29.96S
GRAND RAPIDS   PTCLDY    60  58  92 SE3       29.97S
KALAMAZOO      CLEAR     61  57  87 CALM      29.99S
STURGIS*       CLEAR     64  60  88 CALM      29.99R
THREE RIVERS*  FAIR      62  60  93 CALM      29.98S

$$
OHZ001>008-015>018-024>025-261200-
NORTHWEST OHIO

CITY           SKY/WX    TMP DP  RH WIND       PRES   REMARKS
DEFIANCE       CLEAR     62  59  90 CALM      30.00R
FINDLAY        CLEAR     67  60  78 S6        30.01R
TOLEDO EXPRESS CLEAR     64  63  96 CALM      29.99S
TOLEDO METCALF CLEAR     66  62  87 CALM      30.00S
LIMA           CLEAR     63  61  93 CALM      30.02R

$$
AND FOR LAKE MICHIGAN COASTAL AND OPEN LAKE BUOY OBSERVATIONS

STATION/POSITION TEMP    WIND        PRES    VSBY  WAVE
                 AIR SEA DIR/SP/G                  HT/PER
                 (F)     (DEG/KT/KT) (MB)    (MI)  (FT/S)
CALUMET HARBOR    72     200/  4/  6 1013.4R
MICHIGAN CITY     74     170/ 11/ 13   N/A
BURNS HARBOR      72     180/  8/ 12 1014.6R
SAINT JOSEPH      68     130/  2/  5 1014.2
SOUTH LAKE BUOY   73 71  150/  8/  8 1013.3          0
4 MI NW BRIDGMAN  72 71  180/  6/  8 1013.9R         0
MICHIGAN CITY     72 71  210/  6/  8   N/A           1

$$
&&



USA.gov is the U.S. government's official web portal to all federal, state and local government web resources and services.